Location: Kitt Peak
(31.9633°N, 111.6000°W)
Time: 20:39:15
(UTC-07:00)

Amateur Radio Satellites - All Passes

Search period start: 01 May 2016 20:09
Search period end: 02 May 2016 20:09
Location: Kitt Peak, 31.9633°N, 111.6000°W

Satellite Date Start Highest point End Downlink Frequencies (MHz)
Time Altitude Azimuth
CANX-2 01 May 20:19:48 20:23:46 40° 261° (W) 20:27:45 2200.000
AAUSAT CUBESAT 2 01 May 20:24:14 20:28:18 72° 78° (ENE) 20:32:25 437.432
Oscar 11 01 May 20:33:49 20:37:43 34° 73° (ENE) 20:41:36 145.826/435.025
HO-68 01 May 20:40:07 20:46:47 42° 260° (W) 20:53:30 435.675
FUNcube-1 01 May 20:43:23 20:47:33 37° 73° (ENE) 20:51:41 145.935
UWE-3 01 May 20:51:03 20:55:43 77° 77° (ENE) 21:00:19 435.000/436.395/437.385
CUTE 1.7 + AOD 2 01 May 20:54:00 20:56:57 18° 265° (W) 20:59:54 437.475
JUGNU 01 May 20:55:38 21:00:16 24° 186° (S) 21:04:55 437.505
CUBEBUG 2 01 May 20:55:58 21:00:40 64° 259° (WSW) 21:05:22 437.445
HUMSAT D 01 May 21:04:31 21:06:56 15° 69° (ENE) 21:09:21 437.325/437.525
YUBILEINY 01 May 21:08:20 21:11:19 12° 294° (WNW) 21:14:18 435.215
AO-85 01 May 21:15:15 21:18:55 22° 52° (NE) 21:22:19 145.980
PRISM 01 May 21:15:32 21:19:22 36° 287° (WNW) 21:23:12 437.425
RS-15 01 May 21:22:05 21:33:10 79° 114° (ESE) 21:44:56 29.354- 29.394
ZACube-1 01 May 21:24:36 21:29:07 65° 259° (W) 21:33:37 437.345
SEEDS 01 May 21:25:25 21:26:30 11° 267° (W) 21:27:35 437.485
Cosmos 2504 01 May 21:26:10 21:32:33 32° 283° (WNW) 21:38:50 435.465 / 435.565
COMPASS 1 01 May 21:29:56 21:31:57 13° 266° (W) 21:33:58 437.405
TIGRISAT 01 May 21:42:02 21:43:03 11° 93° (E) 21:44:05 435.000
DELFI C3 01 May 21:47:27 21:51:20 58° 259° (W) 21:55:14 145.870
AIST 2 01 May 21:47:32 21:49:09 12° 310° (NW) 21:50:45 435.215
SRMSAT 01 May 21:52:34 21:57:25 25° 179° (S) 22:02:16 437.500
ANTELSAT 01 May 22:04:11 22:07:36 23° 96° (E) 22:10:59 437.575/2403.000
Oscar 11 01 May 22:11:21 22:13:53 15° 266° (W) 22:16:25 145.826/435.025
AISAT 01 May 22:14:15 22:16:27 14° 67° (ENE) 22:18:39 437.250
FUNcube-1 01 May 22:21:07 22:23:50 16° 266° (W) 22:26:33 145.935
ESTCUBE 1 01 May 22:26:39 22:30:20 26° 71° (ENE) 22:34:00 437.505/2401.250
HUMSAT D 01 May 22:38:22 22:42:14 34° 261° (W) 22:46:06 437.325/437.525
JUGNU 01 May 22:45:25 22:48:41 15° 195° (SSW) 22:51:57 437.505
CUBEBUG 1 01 May 22:52:13 22:56:09 34° 73° (ENE) 23:00:08 437.445
AO-85 01 May 22:55:28 22:59:21 28° 250° (WSW) 23:02:57 145.980
GONETS M04 01 May 22:56:14 23:01:37 18° 81° (E) 23:06:59
NANOSAT C BR1 01 May 22:57:33 23:00:06 16° 95° (E) 23:02:38 145.865
UNISAT 6 01 May 22:57:46 23:02:04 73° 283° (WNW) 23:06:18 437.425
TIGRISAT 01 May 23:15:51 23:19:58 45° 286° (WNW) 23:24:00 435.000
VELOX 1 01 May 23:16:08 23:20:31 71° 76° (ENE) 23:24:56 145.980
DX 1 01 May 23:16:51 23:21:09 65° 75° (ENE) 23:25:29 434.975-435.025
50 SAT 01 May 23:24:35 23:28:13 68° 259° (W) 23:31:51 437.505
UKube-1 01 May 23:25:21 23:29:37 66° 76° (ENE) 23:33:55 .
RS-15 01 May 23:37:29 23:46:51 29° 317° (NW) 23:56:42 29.354- 29.394
ANTELSAT 01 May 23:40:51 23:44:11 22° 290° (WNW) 23:47:29 437.575/2403.000
SRMSAT 01 May 23:41:37 23:46:02 21° 189° (S) 23:50:27 437.500
JAS-2 01 May 23:44:07 23:45:31 10° 88° (E) 23:46:54 435.910
Cosmos 2499 01 May 23:44:56 23:48:55 16° 83° (E) 23:52:50 435.465 / 435.565
QB50P2 01 May 23:47:54 23:52:09 79° 102° (ESE) 23:56:21 145.880/145.840
AISAT 01 May 23:48:17 23:52:30 43° 261° (W) 23:56:45 437.250
DUCHIFAT 1 01 May 23:49:04 23:53:16 68° 102° (ESE) 23:57:25 145.980
PCSat 01 May 23:49:05 23:51:36 13° 51° (NE) 23:54:07 145.827
POLYITAN 1 01 May 23:50:03 23:54:17 80° 100° (E) 23:58:29 437.675
POPSAT HIP 1 01 May 23:52:56 23:57:11 85° 100° (E) 00:01:23 437.405
QB50P1 01 May 23:56:17 00:00:32 86° 283° (WNW) 00:04:44 145.935-145.965
SPROUT 01 May 23:57:11 00:01:29 74° 77° (ENE) 00:05:48 437.525
ESTCUBE 1 02 May 00:03:34 00:07:02 22° 264° (W) 00:10:31 437.505/2401.250
O/OREOS (USA 219) 02 May 00:21:10 00:25:07 29° 66° (ENE) 00:29:01 437.305
CUBEBUG 1 02 May 00:29:52 00:32:29 16° 266° (W) 00:35:08 437.445
AIST 1 02 May 00:29:58 00:34:11 64° 277° (W) 00:38:30
NANOSAT C BR1 02 May 00:32:07 00:35:52 31° 288° (WNW) 00:39:35 145.865
TISAT 1 02 May 00:35:10 00:39:19 56° 75° (ENE) 00:43:29 437.305
BUGSAT 1 02 May 00:35:24 00:39:34 69° 285° (WNW) 00:43:40 437.445
BEESAT 02 May 00:44:26 00:46:09 12° 65° (ENE) 00:47:51 436.000
GONETS M04 02 May 00:48:32 00:57:23 75° 277° (W) 01:06:15
Gurwin Techsat 1B 02 May 01:14:26 01:15:56 11° 92° (E) 01:17:26 435.225
CUSAT 1 02 May 01:20:48 01:27:35 36° 77° (ENE) 01:34:51 437.405
JAS-2 02 May 01:23:29 01:31:22 76° 102° (ESE) 01:39:05 435.910
Oscar 19 02 May 01:24:54 01:29:49 42° 99° (E) 01:34:43 437.125/150
PCSat 02 May 01:30:09 01:35:34 76° 247° (WSW) 01:40:57 145.827
SRMSAT 02 May 01:32:39 01:34:35 12° 198° (SSW) 01:36:30 437.500
Cosmos 2499 02 May 01:34:09 01:41:14 64° 278° (W) 01:48:14 435.465 / 435.565
ITUPSAT 1 02 May 01:35:37 01:40:08 44° 73° (ENE) 01:44:38 437.325
SWISSCUBE 02 May 01:45:20 01:50:03 66° 75° (ENE) 01:54:46 437.505
DANDE 02 May 01:54:15 02:00:24 33° 78° (ENE) 02:07:28 436.750
O/OREOS (USA 219) 02 May 02:01:05 02:04:15 19° 259° (W) 02:07:24 437.305
BEESAT 02 May 02:18:42 02:23:23 58° 259° (W) 02:28:04 436.000
ITAMSAT 1 02 May 02:41:26 02:46:12 37° 99° (E) 02:50:58 435.822/435.867
Gurwin Techsat 1B 02 May 02:50:58 02:56:14 67° 285° (WNW) 03:01:29 435.225
GONETS M04 02 May 02:53:29 02:55:36 11° 295° (WNW) 02:57:44
MOZHAYETS 4 02 May 02:58:34 03:02:15 24° 71° (ENE) 03:05:55
KKS-1 02 May 03:01:17 03:05:32 44° 74° (ENE) 03:09:49 437.445
BEESAT 3 02 May 03:02:32 03:05:41 22° 55° (NE) 03:08:49 437.485
CUSAT 1 02 May 03:02:42 03:09:38 41° 268° (W) 03:17:02 437.405
Oscar 19 02 May 03:05:15 03:08:45 19° 293° (WNW) 03:12:15 437.125/150
BEESAT 2 02 May 03:08:41 03:11:06 15° 53° (NE) 03:13:32 435.950
JAS-2 02 May 03:10:12 03:15:30 20° 297° (WNW) 03:20:48 435.910
AO-7 02 May 03:13:18 03:20:19 29° 98° (E) 03:27:17 29.400- 29.500
ITUPSAT 1 02 May 03:15:33 03:18:06 14° 266° (W) 03:20:40 437.325
STARS 02 May 03:20:34 03:24:37 36° 73° (ENE) 03:28:41 437.465
DANDE 02 May 03:36:39 03:43:09 43° 267° (W) 03:50:45 436.750
RS-15 02 May 04:18:49 04:26:09 17° 31° (NNE) 04:33:30 29.354- 29.394
ITAMSAT 1 02 May 04:21:33 04:25:23 21° 292° (WNW) 04:29:12 435.822/435.867
HORYU 2 02 May 04:24:56 04:28:34 25° 97° (E) 04:32:10 437.375
MOZHAYETS 4 02 May 04:35:34 04:39:17 24° 264° (W) 04:43:00
BEESAT 3 02 May 04:40:12 04:43:15 22° 249° (WSW) 04:46:18 437.485
KKS-1 02 May 04:40:18 04:42:15 13° 266° (W) 04:44:14 437.445
CUBESAT XI-V 02 May 04:40:52 04:44:56 33° 72° (ENE) 04:49:03 437.345
BEESAT 2 02 May 04:45:25 04:49:03 34° 247° (WSW) 04:52:39 435.950
STARS 02 May 04:58:25 05:01:03 15° 265° (W) 05:03:40 437.465
AO-7 02 May 05:05:15 05:13:12 52° 293° (WNW) 05:21:10 29.400- 29.500
YUBILEINY 02 May 05:21:09 05:29:12 40° 77° (ENE) 05:37:14 435.215
STRAND 1 02 May 05:41:44 05:44:01 13° 65° (ENE) 05:46:18 437.568
CUTE-I 02 May 05:44:18 05:48:00 19° 95° (E) 05:51:42 437.470
NOAA 18 02 May 05:49:48 05:54:32 30° 98° (E) 05:59:14 137.9125
BRITE-PL 02 May 05:57:11 06:02:05 29° 95° (E) 06:06:50 437.365/2234.400
Cosmos 2491 02 May 05:57:50 06:05:59 44° 88° (E) 06:14:09 435.465 / 435.565
HORYU 2 02 May 06:01:32 06:04:57 22° 290° (WNW) 06:08:22 437.375
SO-50 02 May 06:02:35 06:06:49 30° 111° (ESE) 06:11:06 436.795
AIST 2 02 May 06:10:22 06:14:30 72° 244° (WSW) 06:18:36 435.215
CUBESAT XI-V 02 May 06:19:13 06:22:20 18° 265° (W) 06:25:29 437.345
LilacSat-2 02 May 06:23:48 06:27:28 45° 99° (E) 06:31:04 437.200
Cubesat XI-IV 02 May 06:27:13 06:32:25 53° 100° (E) 06:37:36 437.490
NOAA 15 02 May 06:27:55 06:33:16 86° 102° (ESE) 06:38:34 137.62
RS-15 02 May 06:29:49 06:41:59 60° 57° (ENE) 06:54:00 29.354- 29.394
AUBIESAT-1 02 May 06:38:03 06:38:40 10° 96° (E) 06:39:16 437.475
ISS 02 May 06:39:54 06:43:08 89° 290° (WNW) 06:46:25 145.825
GOMX 1 02 May 07:12:22 07:17:49 79° 102° (ESE) 07:22:56 467.674
DOVE 4 02 May 07:12:29 07:17:07 35° 97° (E) 07:21:28 437.250
STRAND 1 02 May 07:17:37 07:22:38 59° 259° (WSW) 07:27:40 437.568
YUBILEINY 02 May 07:18:07 07:25:44 36° 273° (W) 07:33:23 435.215
Cosmos 2504 02 May 07:21:42 07:29:20 64° 82° (E) 07:37:31 435.465 / 435.565
CUTE-I 02 May 07:23:10 07:28:08 41° 288° (WNW) 07:33:06 437.470
NOAA 18 02 May 07:30:28 07:35:02 28° 291° (WNW) 07:39:37 137.9125
BRITE-PL 02 May 07:35:27 07:40:24 32° 289° (WNW) 07:45:15 437.365/2234.400
SEEDS 02 May 07:38:12 07:38:54 10° 93° (E) 07:39:37 437.485
SO-50 02 May 07:43:08 07:47:15 26° 306° (NW) 07:51:24 436.795
M-CUBED/EXP-1 PRIME 02 May 07:50:28 07:54:12 51° 290° (WNW) 07:57:39 437.505
Cosmos 2491 02 May 07:55:05 08:02:49 34° 284° (WNW) 08:10:37 435.465 / 435.565
PRISM 02 May 07:59:40 08:03:42 79° 76° (ENE) 08:07:48 437.425
CINEMA 3 02 May 08:01:01 08:05:07 32° 97° (E) 08:09:02 145.822/145.860
Cubesat XI-IV 02 May 08:08:56 08:11:59 16° 294° (WNW) 08:15:03 437.490
CANX-2 02 May 08:09:24 08:13:28 46° 99° (E) 08:17:31 2200.000
AUBIESAT-1 02 May 08:09:54 08:13:22 34° 292° (WNW) 08:16:37 437.475
AAUSAT CUBESAT 2 02 May 08:12:33 08:15:09 16° 95° (E) 08:17:44 437.432
HO-68 02 May 08:12:37 08:19:33 51° 101° (E) 08:26:26 435.675
PHONESAT 2.4 02 May 08:30:53 08:33:31 25° 144° (SE) 08:36:10 2401.200-2431.200
CUTE 1.7 + AOD 2 02 May 08:42:12 08:46:26 76° 282° (WNW) 08:50:38 437.475
RS-15 02 May 08:43:11 08:53:49 36° 255° (WSW) 09:04:23 29.354- 29.394
UWE-3 02 May 08:46:47 08:49:58 21° 95° (E) 08:53:04 435.000/436.395/437.385
DOVE 4 02 May 08:50:47 08:54:27 20° 292° (WNW) 08:58:00 437.250
CUBEBUG 2 02 May 08:52:21 08:56:19 37° 98° (E) 09:00:10 437.445
GOMX 1 02 May 08:53:48 08:55:01 11° 297° (WNW) 08:56:16 467.674
ANTELSAT 02 May 08:59:28 09:01:42 13° 68° (ENE) 09:03:55 437.575/2403.000
SEEDS 02 May 09:10:46 09:14:47 46° 285° (WNW) 09:18:47 437.485
COMPASS 1 02 May 09:15:11 09:19:16 58° 284° (WNW) 09:23:22 437.405
Cosmos 2504 02 May 09:16:53 09:22:04 20° 276° (W) 09:27:29 435.465 / 435.565
ZACube-1 02 May 09:18:21 09:22:07 32° 97° (E) 09:25:49 437.345
DELFI C3 02 May 09:30:26 09:33:41 24° 97° (E) 09:36:57 145.870
CINEMA 3 02 May 09:38:54 09:41:56 18° 292° (WNW) 09:44:52 145.822/145.860
AAUSAT CUBESAT 2 02 May 09:47:01 09:50:38 29° 287° (WNW) 09:54:14 437.432
CANX-2 02 May 09:47:35 09:48:52 11° 292° (WNW) 09:50:09 2200.000
UNISAT 6 02 May 09:51:08 09:55:41 53° 75° (ENE) 10:00:11 437.425
HO-68 02 May 10:01:11 10:06:49 26° 296° (WNW) 10:12:27 435.675
Oscar 11 02 May 10:01:22 10:05:35 57° 284° (WNW) 10:09:47 145.826/435.025
PHONESAT 2.4 02 May 10:07:15 10:10:16 43° 338° (NNW) 10:13:18 2401.200-2431.200
TIGRISAT 02 May 10:08:44 10:13:24 82° 77° (ENE) 10:18:02 435.000
FUNcube-1 02 May 10:12:18 10:16:21 51° 285° (WNW) 10:20:20 145.935
UWE-3 02 May 10:22:58 10:26:19 23° 289° (WNW) 10:29:37 435.000/436.395/437.385
HUMSAT D 02 May 10:26:19 10:30:17 50° 100° (E) 10:34:14 437.325/437.525
CUBEBUG 2 02 May 10:30:22 10:32:33 14° 292° (WNW) 10:34:42 437.445
ANTELSAT 02 May 10:33:27 10:37:58 48° 260° (W) 10:42:26 437.575/2403.000
QB50P2 02 May 10:35:51 10:39:36 30° 73° (ENE) 10:43:22 145.880/145.840
DUCHIFAT 1 02 May 10:36:28 10:40:01 26° 71° (ENE) 10:43:34 145.980
POLYITAN 1 02 May 10:37:58 10:41:45 31° 73° (ENE) 10:45:33 437.675
POPSAT HIP 1 02 May 10:40:40 10:44:29 32° 73° (ENE) 10:48:19 437.405
AIST 1 02 May 10:42:49 10:46:00 19° 77° (ENE) 10:49:10
QB50P1 02 May 10:43:51 10:47:46 36° 73° (ENE) 10:51:41 145.935-145.965
ZACube-1 02 May 10:55:42 10:58:06 15° 291° (WNW) 11:00:27 437.345
50 SAT 02 May 11:00:31 11:02:30 14° 95° (E) 11:04:30 437.505
GONETS M04 02 May 11:05:22 11:13:36 44° 78° (ENE) 11:21:45
DELFI C3 02 May 11:05:34 11:08:22 19° 289° (WNW) 11:11:10 145.870
DX 1 02 May 11:11:06 11:13:54 16° 95° (E) 11:16:41 434.975-435.025
VELOX 1 02 May 11:12:01 11:15:17 20° 96° (E) 11:18:32 145.980
NANOSAT C BR1 02 May 11:18:34 11:22:50 85° 259° (W) 11:27:08 145.865
UKube-1 02 May 11:18:36 11:21:17 16° 95° (E) 11:23:58 .
BUGSAT 1 02 May 11:20:03 11:23:59 40° 74° (ENE) 11:27:58 437.445
AO-85 02 May 11:23:37 11:28:04 27° 109° (ESE) 11:32:34 145.980
Cosmos 2499 02 May 11:29:50 11:36:46 33° 77° (ENE) 11:44:06 435.465 / 435.565
UNISAT 6 02 May 11:31:10 11:32:36 11° 267° (W) 11:34:01 437.425
JAS-2 02 May 11:32:56 11:36:41 17° 62° (ENE) 11:40:41 435.910
AISAT 02 May 11:43:08 11:47:30 50° 100° (E) 11:51:48 437.250
PHONESAT 2.4 02 May 11:45:22 11:47:37 18° 354° (N) 11:49:53 2401.200-2431.200
SPROUT 02 May 11:49:09 11:52:08 18° 95° (E) 11:55:05 437.525
ESTCUBE 1 02 May 11:59:38 12:04:09 74° 284° (WNW) 12:08:41 437.505/2401.250
DUCHIFAT 1 02 May 12:12:32 12:15:38 20° 264° (W) 12:18:46 145.980
QB50P2 02 May 12:12:36 12:15:24 17° 265° (W) 12:18:13 145.880/145.840
POLYITAN 1 02 May 12:14:47 12:17:34 17° 265° (W) 12:20:20 437.675
POPSAT HIP 1 02 May 12:17:39 12:20:17 16° 265° (W) 12:22:56 437.405
AIST 1 02 May 12:19:51 12:23:32 26° 270° (W) 12:27:10
QB50P1 02 May 12:21:18 12:23:37 14° 266° (W) 12:25:56 145.935-145.965
CUBEBUG 1 02 May 12:21:18 12:25:40 58° 285° (WNW) 12:29:59 437.445
TISAT 1 02 May 12:25:55 12:27:46 13° 94° (E) 12:29:36 437.305
Gurwin Techsat 1B 02 May 12:30:59 12:33:01 12° 64° (ENE) 12:35:04 435.225
50 SAT 02 May 12:33:13 12:36:16 25° 287° (WNW) 12:39:19 437.505
Oscar 19 02 May 12:36:57 12:41:41 38° 72° (ENE) 12:46:27 437.125/150
DX 1 02 May 12:46:11 12:50:07 33° 288° (WNW) 12:54:01 434.975-435.025
VELOX 1 02 May 12:47:52 12:51:42 28° 289° (WNW) 12:55:30 145.980
UKube-1 02 May 12:53:29 12:57:22 33° 288° (WNW) 13:01:14 .
BUGSAT 1 02 May 12:57:43 12:59:29 12° 267° (W) 13:01:17 437.445
GONETS M04 02 May 13:02:37 13:10:03 33° 274° (W) 13:17:29
AO-85 02 May 13:03:25 13:08:24 36° 304° (WNW) 13:13:24 145.980
ISS 02 May 13:12:49 13:14:14 12° 32° (NNE) 13:15:40 145.825
JAS-2 02 May 13:15:19 13:20:56 60° 260° (W) 13:27:20 435.910
AISAT 02 May 13:21:49 13:23:28 12° 294° (WNW) 13:25:08 437.250
Cosmos 2499 02 May 13:22:34 13:29:48 41° 270° (W) 13:37:32 435.465 / 435.565
PHONESAT 2.4 02 May 13:22:41 13:25:10 21° 11° (NNE) 13:27:39 2401.200-2431.200
SPROUT 02 May 13:24:22 13:28:02 28° 288° (WNW) 13:31:41 437.525
ITUPSAT 1 02 May 13:42:03 13:45:07 17° 95° (E) 13:48:11 437.325
SWISSCUBE 02 May 13:50:59 13:54:52 25° 97° (E) 13:58:45 437.505
ITAMSAT 1 02 May 13:54:44 13:59:23 35° 71° (ENE) 14:04:02 435.822/435.867
TISAT 1 02 May 13:59:37 14:03:32 39° 287° (WNW) 14:07:26 437.305
Gurwin Techsat 1B 02 May 14:07:03 14:12:19 68° 258° (WSW) 14:17:37 435.225
AO-7 02 May 14:07:42 14:14:18 27° 61° (ENE) 14:20:53 29.400- 29.500
Oscar 19 02 May 14:17:21 14:21:04 20° 265° (W) 14:24:47 437.125/150
CUSAT 1 02 May 14:21:50 14:24:20 22° 87° (E) 14:27:19 437.405
BEESAT 02 May 14:23:37 14:28:16 52° 101° (E) 14:32:54 436.000
PCSat 02 May 14:24:25 14:28:58 28° 107° (ESE) 14:33:32 145.827
O/OREOS (USA 219) 02 May 14:27:45 14:32:21 87° 108° (ESE) 14:36:57 437.305
ISS 02 May 14:47:45 14:50:59 63° 227° (SW) 14:54:12 145.825
KKS-1 02 May 14:59:01 15:00:56 13° 94° (E) 15:02:51 437.445
PHONESAT 2.4 02 May 14:59:12 15:02:21 75° 27° (NNE) 15:05:30 2401.200-2431.200
DANDE 02 May 15:02:04 15:04:05 19° 89° (E) 15:06:20 436.750
ITUPSAT 1 02 May 15:18:37 15:23:01 38° 288° (WNW) 15:27:24 437.325
HORYU 2 02 May 15:19:40 15:21:53 14° 67° (ENE) 15:24:05 437.375
SWISSCUBE 02 May 15:28:37 15:32:33 26° 290° (WNW) 15:36:29 437.505
ITAMSAT 1 02 May 15:34:55 15:38:51 22° 264° (W) 15:42:47 435.822/435.867
AO-7 02 May 15:58:24 16:06:30 58° 257° (WSW) 16:14:38 29.400- 29.500
BEESAT 02 May 16:03:25 16:05:33 13° 294° (WNW) 16:07:41 436.000
CUSAT 1 02 May 16:05:20 16:06:37 12° 293° (WNW) 16:08:00 437.405
PCSat 02 May 16:07:27 16:12:12 31° 302° (WNW) 16:17:00 145.827
Cosmos 2491 02 May 16:16:18 16:21:12 16° 68° (ENE) 16:26:04 435.465 / 435.565
SO-50 02 May 16:18:30 16:23:11 80° 63° (ENE) 16:27:41 436.795
KKS-1 02 May 16:33:25 16:37:40 44° 286° (WNW) 16:41:52 437.445
MOZHAYETS 4 02 May 16:34:20 16:38:54 72° 283° (WNW) 16:43:27
PHONESAT 2.4 02 May 16:37:15 16:38:55 14° 219° (SW) 16:40:35 2401.200-2431.200
CUBESAT XI-V 02 May 16:44:00 16:45:53 12° 93° (E) 16:47:46 437.345
BEESAT 3 02 May 16:50:35 16:52:05 12° 108° (ESE) 16:53:35 437.485
STARS 02 May 16:50:40 16:54:59 56° 285° (WNW) 16:59:16 437.465
HORYU 2 02 May 16:53:44 16:58:01 44° 260° (W) 17:02:18 437.375
CUTE-I 02 May 17:01:39 17:05:27 20° 67° (ENE) 17:09:16 437.470
LilacSat-2 02 May 17:03:03 17:04:37 12° 69° (ENE) 17:06:10 437.200
BRITE-PL 02 May 17:04:08 17:07:14 17° 66° (ENE) 17:10:29 437.365/2234.400
JUGNU 02 May 17:04:30 17:08:17 18° 167° (SSE) 17:12:06 437.505
NOAA 18 02 May 17:11:12 17:16:12 36° 70° (ENE) 17:21:12 137.9125
NOAA 15 02 May 17:43:02 17:48:17 84° 77° (ENE) 17:53:34 137.62
Cubesat XI-IV 02 May 17:44:21 17:49:32 55° 73° (ENE) 17:54:43 437.490
SRMSAT 02 May 18:05:33 18:07:19 11° 162° (SSE) 18:09:06 437.500
Cosmos 2491 02 May 18:10:11 18:19:01 85° 266° (W) 18:27:46 435.465 / 435.565
DOVE 4 02 May 18:12:58 18:16:50 22° 69° (ENE) 18:20:48 437.250
GOMX 1 02 May 18:14:59 18:19:41 48° 73° (ENE) 18:24:43 467.674
YUBILEINY 02 May 18:15:27 18:23:53 55° 90° (E) 18:32:17 435.215
CUBESAT XI-V 02 May 18:18:55 18:23:27 50° 285° (WNW) 18:28:00 437.345
BEESAT 3 02 May 18:25:41 18:29:23 39° 301° (WNW) 18:33:06 437.485
M-CUBED/EXP-1 PRIME 02 May 18:30:47 18:35:30 82° 72° (ENE) 18:40:12 437.505
BEESAT 2 02 May 18:32:23 18:36:18 61° 299° (WNW) 18:40:16 435.950
LilacSat-2 02 May 18:34:59 18:38:33 35° 262° (W) 18:42:08 437.200
HO-68 02 May 18:37:19 18:42:39 23° 63° (ENE) 18:47:59 435.675
CUTE-I 02 May 18:40:11 18:45:10 40° 261° (W) 18:50:09 437.470
BRITE-PL 02 May 18:40:54 18:45:16 40° 263° (W) 18:50:01 437.365/2234.400
AUBIESAT-1 02 May 18:49:42 18:54:20 74° 253° (WSW) 18:58:59 437.475
JUGNU 02 May 18:52:00 18:56:43 25° 177° (S) 19:01:27 437.505
NOAA 18 02 May 18:52:32 18:56:52 23° 264° (W) 19:01:12 137.9125
CINEMA 3 02 May 18:57:45 19:01:22 20° 69° (ENE) 19:05:01 145.822/145.860
CANX-2 02 May 18:58:22 19:01:15 18° 70° (ENE) 19:04:09 2200.000
Cubesat XI-IV 02 May 19:27:04 19:29:50 14° 266° (W) 19:32:37 437.490
CUTE 1.7 + AOD 2 02 May 19:30:01 19:33:56 38° 74° (ENE) 19:37:50 437.475
STRAND 1 02 May 19:32:54 19:38:00 70° 102° (ESE) 19:43:06 437.568
UWE-3 02 May 19:40:46 19:42:13 11° 67° (ENE) 19:43:40 435.000/436.395/437.385
CUBEBUG 2 02 May 19:45:51 19:49:18 20° 70° (ENE) 19:52:43 437.445
PRISM 02 May 19:47:17 19:49:50 16° 95° (E) 19:52:23 437.425
DOVE 4 02 May 19:49:40 19:54:12 35° 263° (W) 19:58:57 437.250
SRMSAT 02 May 19:51:27 19:55:52 21° 170° (S) 20:00:16 437.500
Cosmos 2504 02 May 19:54:46 20:01:59 60° 92° (E) 20:08:59 435.465 / 435.565
GOMX 1 02 May 19:55:15 19:58:02 15° 269° (W) 20:00:54 467.674
SEEDS 02 May 19:57:14 20:01:21 60° 76° (ENE) 20:05:27 437.485
COMPASS 1 02 May 20:00:56 20:04:53 45° 75° (ENE) 20:08:49 437.405
